Location: Allen Generating Plant
(35.0740°N, 90.1490°W)
Time: 18:22:08
(UTC+00:00)

A-11 Canister half - Pass Details

Date: 19 December 2025
Orbit: 1526 x 1682 km, 47.3° (Epoch: 12 January)

Event Time Altitude Azimuth Distance (km) Brightness Sun altitude
Rises 00:00:40 0° 290° (WNW) 4,906 12.5 -13.8°
Reaches altitude 10° 00:05:37 10° 270° (W) 3,890 12.3 -14.8°
Maximum altitude 00:10:44 15° 238° (WSW) 3,432 11.9 -15.8°
Drops below altitude 10° 00:15:49 10° 206° (SSW) 3,818 11.7 -16.7°
Sets 00:20:39 0° 185° (S) 4,767 11.9 -17.7°
